Location: *
(50.0228°S, 177.2688°W)
Time: 10:39:51
(UTC+00:00)

STARLINK-1026 - Pass Details

Date: 07 April 2020
Orbit: 549 x 551 km, 53.0° (Epoch: 26 May)

Event Time Altitude Azimuth Distance (km) Brightness Sun altitude
Rises 06:45:10 0° 248° (WSW) 2,752 8.8 -14.0°
Reaches altitude 10° 06:47:27 10° 251° (WSW) 1,853 7.6 -14.4°
Maximum altitude 06:51:35 57° 329° (NNW) 663 4.1 -15.1°
Enters shadow 06:54:14 21° 42° (NE) 1,294 5.1 -15.5°
